Eastover, SC

1:59 PM EST on December 08, 2019 (GMT -0500)
McEntire Angs

Weather History for KMMT - October, 2019

Change the Weather History Date:

Tuesday, October 22, 2019

  Actual Average Record
Temperature  
Mean Temperature 72 °F -  
Max Temperature 83 °F 71 °F 82 °F (1996)
Min Temperature 59 °F 49 °F 34 °F (2018)
Cooling Degree Days 7    
Growing Degree Days 22 (Base 50)    
Moisture  
Dew Point 65 °F    
Average Humidity 82    
Maximum Humidity 100    
Minimum Humidity 33    
Precipitation  
Precipitation 0.01 in - - ()
Sea Level Pressure  
Sea Level Pressure 29.91 in    
Wind  
Wind Speed 6 mph ()    
Max Wind Speed 20 mph    
Max Gust Speed 25 mph    
Visibility 9.6 miles    
Events Rain    
Averages and records for this station are not official NWS values.
T = Trace of Precipitation, MM = Missing Value Source: Averaged Metar Reports

Daily Weather History Graph

Daily Weather History Graph

Search for Another Location

Airport or City:

Astronomy

Oct. 22, 2019 Rise Set
Actual Time 7:33 AM EDT 6:41 PM EDT
Civil Twilight 7:08 AM EDT 7:06 PM EDT
Nautical Twilight 6:39 AM EDT 7:35 PM EDT
Astronomical Twilight 6:10 AM EDT 8:04 PM EDT
Moon 1:04 AM EDT (10/22) 3:28 PM EDT (10/22)
Length of Visible Light 11h 58m
Length of Day
11h 07m
Last Quarter, 37% of the Moon is Illuminated
Oct 22
Last Quarter
Oct 27
New
Nov 4
First Quarter
Nov 12
Full
Nov 19
Last Quarter

Hourly Weather History & Observations

Time (EDT) Temp. Heat Index Dew Point Humidity Pressure Visibility Wind Dir Wind Speed Gust Speed Precip Events Conditions
12:56 AM 66.7 °F - 66.2 °F 98% 30.02 in 10.0 mi East 4.6 mph - N/A   Mostly Cloudy
1:56 AM 66.9 °F - 66.4 °F 98% 30.01 in 10.0 mi East 5.8 mph - N/A   Overcast
2:56 AM 66.6 °F - 66.2 °F 99% 29.96 in 10.0 mi ESE 6.9 mph - N/A   Mostly Cloudy
3:56 AM 66.4 °F - 66.4 °F 100% 29.96 in 10.0 mi East 5.8 mph - N/A   Mostly Cloudy
4:56 AM 67.1 °F - 67.1 °F 100% 29.91 in 10.0 mi East 8.1 mph - N/A   Overcast
5:26 AM 68.0 °F - 68.0 °F 100% 29.93 in 10.0 mi ESE 6.9 mph - N/A   Overcast
5:36 AM 68.0 °F - 68.0 °F 100% 29.93 in 10.0 mi ESE 8.1 mph - N/A   Overcast
5:56 AM 68.0 °F - 68.0 °F 100% 29.92 in 10.0 mi East 5.8 mph - 0.00 in Rain Light Rain
6:16 AM 68.0 °F - 68.0 °F 100% 29.90 in 10.0 mi East 6.9 mph - N/A Rain Light Rain
6:46 AM 68.0 °F - 68.0 °F 100% 29.93 in 10.0 mi ESE 3.5 mph - N/A Rain Light Rain
6:56 AM 67.8 °F - 67.8 °F 100% 29.93 in 10.0 mi Calm Calm - 0.00 in   Overcast
7:26 AM 68.0 °F - 68.0 °F 100% 29.93 in 10.0 mi Calm Calm - N/A Rain Light Rain
7:36 AM 68.0 °F - 68.0 °F 100% 29.92 in 10.0 mi ESE 3.5 mph - N/A Rain Light Rain
7:56 AM 68.0 °F - 68.0 °F 100% 29.92 in 10.0 mi ESE 5.8 mph - N/A   Overcast
8:06 AM 68.0 °F - 68.0 °F 100% 29.92 in 10.0 mi ESE 4.6 mph - N/A   Overcast
8:26 AM 68.0 °F - 68.0 °F 100% 29.92 in 10.0 mi Calm Calm - N/A   Overcast
8:56 AM 69.3 °F - 69.3 °F 100% 29.92 in 10.0 mi SE 5.8 mph - N/A   Overcast
9:26 AM 69.8 °F - 69.8 °F 100% 29.93 in 10.0 mi SSE 6.9 mph - N/A   Overcast
9:41 AM 71.6 °F - 71.6 °F 100% 29.93 in 3.0 mi SSE 6.9 mph - N/A   Overcast
9:56 AM 72.0 °F - 72.0 °F 100% 29.92 in 4.0 mi SSE 8.1 mph - N/A   Mostly Cloudy
10:16 AM 73.4 °F - 71.6 °F 94% 29.92 in 10.0 mi SSE 5.8 mph - N/A   Mostly Cloudy
10:56 AM 73.9 °F - 71.8 °F 93% 29.91 in 10.0 mi South 8.1 mph - N/A   Overcast
11:26 AM 75.2 °F - 71.6 °F 89% 29.91 in 10.0 mi South 6.9 mph - N/A   Overcast
11:36 AM 75.2 °F - 71.6 °F 89% 29.91 in 10.0 mi South 6.9 mph - N/A   Overcast
11:46 AM 75.2 °F - 71.6 °F 89% 29.91 in 10.0 mi South 5.8 mph - N/A   Overcast
11:56 AM 76.1 °F - 72.1 °F 87% 29.91 in 10.0 mi SSW 5.8 mph - N/A   Overcast
12:26 PM 78.8 °F - 71.6 °F 78% 29.90 in 10.0 mi SW 10.4 mph - N/A   Mostly Cloudy
12:46 PM 80.6 °F 84.6 °F 71.6 °F 74% 29.88 in 10.0 mi SW 10.4 mph - N/A   Mostly Cloudy
12:56 PM 79.5 °F - 70.5 °F 74% 29.88 in 10.0 mi SW 13.8 mph 19.6 mph N/A   Mostly Cloudy
1:56 PM 82.9 °F 86.7 °F 69.4 °F 64% 29.83 in 10.0 mi WSW 10.4 mph - N/A   Mostly Cloudy
2:14 PM 82.4 °F 86.3 °F 69.8 °F 66% 29.83 in 7.0 mi West 13.8 mph - N/A Rain Light Rain Showers
2:22 PM 80.6 °F 84.6 °F 71.6 °F 74% 29.83 in 10.0 mi West 12.7 mph 25.3 mph N/A   Mostly Cloudy
2:42 PM 77.0 °F - 71.6 °F 83% 29.83 in 10.0 mi West 12.7 mph - N/A   Mostly Cloudy
2:56 PM 79.0 °F - 69.4 °F 72% 29.83 in 10.0 mi West 15.0 mph 21.9 mph 0.00 in   Mostly Cloudy
3:56 PM 81.0 °F 81.9 °F 61.7 °F 52% 29.85 in 10.0 mi WSW 19.6 mph - 0.01 in   Scattered Clouds
4:56 PM 81.3 °F 80.7 °F 53.2 °F 38% 29.86 in 10.0 mi WSW 13.8 mph 23.0 mph N/A   Scattered Clouds
5:56 PM 77.2 °F - 45.9 °F 33% 29.86 in 10.0 mi WSW 11.5 mph - N/A   Mostly Cloudy
6:56 PM 71.4 °F - 47.7 °F 43% 29.90 in 10.0 mi WSW 6.9 mph - N/A   Mostly Cloudy
7:56 PM 65.5 °F - 49.8 °F 57% 29.92 in 10.0 mi WNW 4.6 mph - N/A   Scattered Clouds
8:56 PM 67.1 °F - 41.4 °F 39% 29.94 in 10.0 mi West 8.1 mph - N/A   Scattered Clouds
9:56 PM 65.3 °F - 40.3 °F 40% 29.97 in 10.0 mi West 8.1 mph - N/A   Clear
10:56 PM 62.4 °F - 41.4 °F 46% 29.99 in 10.0 mi West 6.9 mph - N/A   Clear
11:56 PM 59.0 °F - 42.8 °F 55% 30.00 in 10.0 mi West 4.6 mph - N/A   Clear